Hourly Weather Muri

Today, 25 September, Saturday

Time Temperature Precipitation Wind Pressure Humidity
00:00 +14°C° 0 mm 1 mps 714 mmHg 80%
01:00 +14°C° 0 mm 1 mps 714 mmHg 79%
02:00 +13°C° 0 mm 1 mps 714 mmHg 78%
03:00 +13°C° 0 mm 1 mps 713 mmHg 77%
04:00 +13°C° 0 mm 1 mps 713 mmHg 76%
05:00 +14°C° 0 mm 1 mps 713 mmHg 75%
06:00 +14°C° 0 mm 1 mps 713 mmHg 75%
07:00 +16°C° 0 mm 1 mps 714 mmHg 68%
08:00 +20°C° 0 mm 1 mps 714 mmHg 61%
09:00 +20°C° 0 mm 0 mps 714 mmHg 55%
10:00 +24°C° 0 mm 1 mps 714 mmHg 52%
11:00 +25°C° 0 mm 1 mps 714 mmHg 49%
12:00 +26°C° 0 mm 1 mps 714 mmHg 46%
13:00 +26°C° 0 mm 1 mps 714 mmHg 51%
14:00 +25°C° 0 mm 1 mps 713 mmHg 56%
15:00 +25°C° 0 mm 1 mps 713 mmHg 62%
16:00 +23°C° 0 mm 1 mps 713 mmHg 66%
17:00 +22°C° 0 mm 1 mps 713 mmHg 71%
18:00 +20°C° 0 mm 1 mps 713 mmHg 76%
19:00 +19°C° 0.2 mm 1 mps 714 mmHg 80%
20:00 +18°C° 0.2 mm 1 mps 714 mmHg 84%
21:00 +18°C° 0.2 mm 1 mps 714 mmHg 88%
22:00 +16°C° 0.1 mm 1 mps 714 mmHg 88%
23:00 +16°C° 0.1 mm 1 mps 714 mmHg 88%

Tomorrow, 26 September, Sunday

Time Temperature Precipitation Wind Pressure Humidity
00:00 +15°C° 0.1 mm 1 mps 714 mmHg 88%
01:00 +15°C° 0.1 mm 1 mps 714 mmHg 88%
02:00 +15°C° 0.1 mm 1 mps 714 mmHg 88%
03:00 +15°C° 0.1 mm 1 mps 713 mmHg 88%
04:00 +15°C° 0.3 mm 1 mps 713 mmHg 88%
05:00 +15°C° 0.3 mm 1 mps 713 mmHg 89%
06:00 +15°C° 0.3 mm 1 mps 713 mmHg 89%
07:00 +16°C° 0.2 mm 1 mps 714 mmHg 86%
08:00 +19°C° 0.2 mm 1 mps 714 mmHg 82%
09:00 +20°C° 0.2 mm 1 mps 715 mmHg 79%
10:00 +21°C° 0.6 mm 1 mps 714 mmHg 80%
11:00 +21°C° 0.6 mm 1 mps 714 mmHg 81%
12:00 +21°C° 0.6 mm 1 mps 714 mmHg 82%
13:00 +21°C° 1.5 mm 1 mps 714 mmHg 85%
14:00 +20°C° 1.5 mm 1 mps 714 mmHg 89%
15:00 +19°C° 1.5 mm 1 mps 714 mmHg 93%
16:00 +18°C° 1 mm 1 mps 714 mmHg 93%
17:00 +16°C° 1 mm 1 mps 714 mmHg 93%
18:00 +15°C° 1 mm 1 mps 714 mmHg 94%
19:00 +15°C° 0.3 mm 1 mps 715 mmHg 94%
20:00 +15°C° 0.3 mm 1 mps 715 mmHg 93%
21:00 +14°C° 0.3 mm 1 mps 715 mmHg 93%
22:00 +14°C° 0 mm 1 mps 715 mmHg 93%
23:00 +14°C° 0 mm 1 mps 715 mmHg 93%

Day after tomorrow, 27 September, Monday

Time Temperature Precipitation Wind Pressure Humidity
00:00 +14°C° 0 mm 1 mps 715 mmHg 93%
01:00 +13°C° 0 mm 1 mps 715 mmHg 93%
02:00 +13°C° 0 mm 1 mps 715 mmHg 94%
03:00 +13°C° 0 mm 1 mps 714 mmHg 94%
04:00 +13°C° 0 mm 1 mps 714 mmHg 94%
05:00 +13°C° 0 mm 1 mps 714 mmHg 94%
06:00 +13°C° 0 mm 1 mps 714 mmHg 93%
07:00 +15°C° 0 mm 1 mps 714 mmHg 89%
08:00 +16°C° 0 mm 1 mps 715 mmHg 84%
09:00 +17°C° 0 mm 0 mps 715 mmHg 79%
10:00 +21°C° 0 mm 1 mps 715 mmHg 73%
11:00 +22°C° 0 mm 1 mps 715 mmHg 67%
12:00 +23°C° 0 mm 1 mps 715 mmHg 61%
13:00 +22°C° 0 mm 1 mps 715 mmHg 66%
14:00 +22°C° 0 mm 1 mps 715 mmHg 71%
15:00 +19°C° 0 mm 0 mps 716 mmHg 76%
16:00 +18°C° 0 mm 0 mps 716 mmHg 81%
17:00 +16°C° 0 mm 0 mps 716 mmHg 85%
18:00 +15°C° 0 mm 0 mps 716 mmHg 89%
19:00 +15°C° 0 mm 1 mps 716 mmHg 90%
20:00 +15°C° 0 mm 1 mps 716 mmHg 91%
21:00 +14°C° 0 mm 1 mps 717 mmHg 93%
22:00 +14°C° 0 mm 1 mps 717 mmHg 93%
23:00 +14°C° 0 mm 1 mps 717 mmHg 93%

28 September, Tuesday

Time Temperature Precipitation Wind Pressure Humidity
00:00 +13°C° 0 mm 1 mps 717 mmHg 93%
01:00 +13°C° 0 mm 1 mps 717 mmHg 93%
02:00 +13°C° 0 mm 1 mps 716 mmHg 93%
03:00 +13°C° 0 mm 1 mps 716 mmHg 93%
04:00 +13°C° 0 mm 1 mps 716 mmHg 93%
05:00 +13°C° 0 mm 1 mps 716 mmHg 93%
06:00 +12°C° 0 mm 0 mps 716 mmHg 93%
07:00 +14°C° 0 mm 1 mps 716 mmHg 87%
08:00 +16°C° 0 mm 1 mps 716 mmHg 81%
09:00 +19°C° 0 mm 1 mps 716 mmHg 75%
10:00 +20°C° 0 mm 1 mps 716 mmHg 74%
11:00 +20°C° 0 mm 1 mps 715 mmHg 72%
12:00 +21°C° 0 mm 1 mps 715 mmHg 71%
13:00 +20°C° 0 mm 1 mps 715 mmHg 73%
14:00 +20°C° 0 mm 1 mps 715 mmHg 76%
15:00 +20°C° 0 mm 1 mps 715 mmHg 78%
16:00 +19°C° 0.4 mm 1 mps 715 mmHg 84%
17:00 +18°C° 0.4 mm 1 mps 715 mmHg 89%
18:00 +16°C° 0.4 mm 1 mps 715 mmHg 94%
19:00 +15°C° 1.7 mm 1 mps 715 mmHg 94%
20:00 +15°C° 1.7 mm 2 mps 716 mmHg 94%
21:00 +14°C° 1.7 mm 2 mps 716 mmHg 94%
22:00 +14°C° 0.5 mm 2 mps 716 mmHg 94%
23:00 +13°C° 0.5 mm 1 mps 717 mmHg 94%

29 September, Wednesday

Time Temperature Precipitation Wind Pressure Humidity
00:00 +13°C° 0.5 mm 1 mps 717 mmHg 94%
01:00 +13°C° 0.1 mm 1 mps 717 mmHg 94%
02:00 +13°C° 0.1 mm 1 mps 717 mmHg 95%
03:00 +12°C° 0.1 mm 1 mps 717 mmHg 95%
04:00 +12°C° 0.2 mm 1 mps 717 mmHg 95%
05:00 +12°C° 0.2 mm 1 mps 718 mmHg 95%
06:00 +11°C° 0.2 mm 1 mps 718 mmHg 95%
07:00 +12°C° 0.1 mm 1 mps 718 mmHg 88%
08:00 +13°C° 0.1 mm 1 mps 719 mmHg 82%
09:00 +14°C° 0.1 mm 1 mps 719 mmHg 76%
10:00 +15°C° 0 mm 1 mps 719 mmHg 68%
11:00 +16°C° 0 mm 1 mps 719 mmHg 61%
12:00 +18°C° 0 mm 1 mps 719 mmHg 53%
13:00 +18°C° 0 mm 1 mps 719 mmHg 54%
14:00 +18°C° 0 mm 1 mps 719 mmHg 54%
15:00 +18°C° 0 mm 1 mps 719 mmHg 55%
16:00 +15°C° 0 mm 1 mps 719 mmHg 64%
17:00 +13°C° 0 mm 1 mps 719 mmHg 73%
18:00 +11°C° 0 mm 1 mps 719 mmHg 83%
19:00 +11°C° 0 mm 1 mps 719 mmHg 85%
20:00 +10°C° 0 mm 1 mps 720 mmHg 87%
21:00 +10°C° 0 mm 1 mps 720 mmHg 89%
22:00 +10°C° 0 mm 1 mps 720 mmHg 88%
23:00 +10°C° 0 mm 1 mps 720 mmHg 87%

30 September, Thursday

Time Temperature Precipitation Wind Pressure Humidity
00:00 +11°C° 0 mm 1 mps 720 mmHg 85%
01:00 +11°C° 0 mm 1 mps 719 mmHg 86%
02:00 +11°C° 0 mm 1 mps 719 mmHg 86%
03:00 +11°C° 0 mm 1 mps 719 mmHg 86%
04:00 +10°C° 0 mm 1 mps 719 mmHg 88%
05:00 +9°C° 0 mm 1 mps 719 mmHg 89%
06:00 +9°C° 0 mm 1 mps 719 mmHg 91%
07:00 +11°C° 0 mm 1 mps 719 mmHg 83%
08:00 +13°C° 0 mm 1 mps 719 mmHg 75%
09:00 +14°C° 0 mm 1 mps 719 mmHg 67%
10:00 +15°C° 0 mm 1 mps 719 mmHg 62%
11:00 +16°C° 0 mm 1 mps 719 mmHg 57%
12:00 +18°C° 0 mm 1 mps 719 mmHg 53%
13:00 +18°C° 0 mm 1 mps 718 mmHg 54%
14:00 +16°C° 0 mm 1 mps 718 mmHg 56%
15:00 +16°C° 0 mm 1 mps 718 mmHg 58%
16:00 +14°C° 0 mm 1 mps 718 mmHg 67%
17:00 +12°C° 0 mm 1 mps 719 mmHg 76%
18:00 +10°C° 0 mm 1 mps 719 mmHg 85%
19:00 +10°C° 0 mm 1 mps 719 mmHg 87%
20:00 +9°C° 0 mm 1 mps 719 mmHg 88%
21:00 +9°C° 0 mm 1 mps 719 mmHg 89%
22:00 +8°C° 0 mm 1 mps 719 mmHg 89%
23:00 +8°C° 0 mm 1 mps 719 mmHg 89%
Show more

We Need Your Consent

Meteoprog and our Service Providers may store and access personal data such as cookies, device identifiers or other similar technologies on your device and process such data to personalise content and ads, as well as provide social media features and to analyse the traffic.

  • Store and/or access information on your device

    Cookies, device identifiers or other information can be stored or accessed on your device for the purposes indicated above.

  • Personalised ads and content, ad and content measurement, audience insights, and products development

    Ads and content can be personalised based on a profile. More data can be added to better personalise ads and content. Ad and content performance can be measured. Insights about the audience who saw the ads and content can be derived. Such data can be used to develop or improve user’s experience, systems and software.

By clicking ‘I Agree’ you will allow the use of indicated cookies, device identifiers, web beacons or other similar technologies. Your settings can be changed in the browser on your device.

For certain purposes, legitimate interests may be relied on, rather than consent. You can read more about this in our Privacy and Cookie Policy.